Regional Weather Roundup
Issued by NWS

Home | Current Version | Previous Version | Graphics & Text | Print | Product List | Glossary On
Versions: 1 2 3 4 5 6 7 8 9 10 11 12 13 14 15 16 17 18 19 20 21 22 23 24 25 26 27 28 29 30 31 32 33 34 35 36 37 38 39 40 41 42 43 44 45 46 47 48 49 50
000
ASUS43 KBIS 042110
RWRND

NORTH DAKOTA REGIONAL WEATHER ROUNDUP
NATIONAL WEATHER SERVICE BISMARCK ND
400 PM CDT WED MAY 04 2016

NOTE: "FAIR" INDICATES FEW OR NO CLOUDS BELOW 12,000 FEET WITH NO
SIGNIFICANT WEATHER AND/OR OBSTRUCTIONS TO VISIBILITY.


NDZ001>003-009>011-017-042200-
NORTHWEST NORTH DAKOTA

CITY           SKY/WX    TMP DP  RH WIND       PRES   REMARKS
WILLISTON      SUNNY     84  39  20 SW12G20   29.93F
MINOT          SUNNY     88  37  16 SW8       29.92F
MINOT AFB      SUNNY     82  39  21 VRB6      29.90F
$$

NDZ018>021-031>035-040>046-042200-
SOUTHWEST NORTH DAKOTA

CITY           SKY/WX    TMP DP  RH WIND       PRES   REMARKS
BISMARCK       SUNNY     79  41  25 CALM      30.01F
DICKINSON      SUNNY     77  36  22 S12G21    29.98F
GARRISON         N/A     82  41  23 SW12G18   29.97F
HETTINGER ARPT SUNNY     78  40  25 S10       30.04F
$$

NDZ004>008-012>016-024-026-027-054-042200-
NORTHEAST NORTH DAKOTA

CITY           SKY/WX    TMP DP  RH WIND       PRES   REMARKS
GRAND FORKS    MOSUNNY   69  30  23 VRB5      29.99F
GRND FRKS AFB  SUNNY     68  28  22 VRB3      30.00F
DEVILS LAKE    SUNNY     70  30  22 S7        30.01F
$$

NDZ022-023-025-028>030-036>039-047>053-042200-
SOUTHEAST NORTH DAKOTA

CITY           SKY/WX    TMP DP  RH WIND       PRES   REMARKS
FARGO          SUNNY     70  30  22 MISG      30.00F
JAMESTOWN      SUNNY     70  33  25 SW5       30.01F
$$




USA.gov is the U.S. government's official web portal to all federal, state and local government web resources and services.